Regional Weather Roundup
Issued by NWS

Home | Current Version | Previous Version | Text Only | Print | Product List | Glossary On
Versions: 1 2 3 4 5 6 7 8 9 10 11 12 13 14 15 16 17 18 19 20 21 22 23 24 25 26 27 28 29 30 31 32 33 34 35 36 37 38 39 40 41 42 43 44 45 46 47 48 49 50
000
ASUS44 KMEG 051100
RWRTN
TENNESSEE HOURLY STATE WEATHER ROUNDUP
NATIONAL WEATHER SERVICE MEMPHIS TN
600 AM CDT SAT SEP 05 2015

TNZ002-004-019-021-049-052-054-088>092-051200-
WEST TENNESSEE

CITY           SKY/WX    TMP DP  RH WIND       PRES   REMARKS
MEMPHIS INTL   CLEAR     78  70  76 CALM      30.04R
NWS MEMPHIS      N/A     71 N/A N/A MISG        N/A
JACKSON        CLEAR     68  66  93 CALM      30.05R FOG
DYERSBURG      CLEAR     72  70  94 CALM      30.05S
UNION CITY     CLEAR    N/A N/A N/A CALM      30.05R
PARIS          CLEAR     66  64  94 CALM      30.07S
LEXINGTON      CLEAR     66  66 100 CALM      30.05R
$$

TNZ008-025-027-028-033-062-065-066-051200-
NORTH MIDDLE TENNESSEE

CITY           SKY/WX    TMP DP  RH WIND       PRES   REMARKS
NASHVILLE      PTCLDY    72  66  81 CALM      30.08R
CLARKSVILLE    CLEAR     68  66  93 CALM      30.07S FOG
COOKEVILLE     CLEAR     63  63 100 CALM      30.09S
CROSSVILLE     CLEAR     66  63  90 CALM      30.15R FOG
$$

TNZ061-075-076-078-094-096-097-051200-
SOUTH MIDDLE TENNESSEE

CITY           SKY/WX    TMP DP  RH WIND       PRES   REMARKS
FAYETTEVILLE   CLEAR     70  68  94 CALM      30.08R
TULLAHOMA      CLEAR     66  63  88 CALM      30.10R
WINCHESTER     CLEAR     64  64 100 CALM      30.09R
COLUMBIA       CLEAR    N/A N/A N/A CALM      30.06R
SHELBYVILLE    CLEAR     66  66 100 SE3       30.09R
$$

TNZ017-018-042-046-047-051200-
NORTHEAST TENNESSEE

CITY           SKY/WX    TMP DP  RH WIND       PRES   REMARKS
TRI CITIES     PTCLDY    62  61  96 CALM      30.16R
ELIZABETHTON   SUNNY     63  59  88 NE5       30.18R
$$

TNZ012-013-036-069-073-074-051200-
CENTRAL EAST TENNESSEE

CITY           SKY/WX    TMP DP  RH WIND       PRES   REMARKS
KNOXVILLE      CLEAR     68  67  96 CALM      30.10R
OAK RIDGE      CLEAR     69  66  90 CALM      30.12R
GATLINBURG     SUNNY     63  63 100 CALM      30.11R
$$

TNZ083-085-099-051200-
SOUTHEAST TENNESSEE

CITY           SKY/WX    TMP DP  RH WIND       PRES   REMARKS
CHATTANOOGA    CLEAR     71  68  90 S3        30.09R FOG
$$

SKY/WX REPORTED AS FAIR MEANS FEW OR NO CLOUDS BELOW
12 THOUSAND FEET.




USA.gov is the U.S. government's official web portal to all federal, state and local government web resources and services.